Theta_e
315 316 319 319 318 317 318 318 317 316 317 315 315 316 316 316 317 318 318 319 320 320 323 326 325 324 324 332 356 357 355 355 355 353 352 353 351 349 347 346 346 344 333 334
317 318 318 318 318 318 317 317 317 316 316 316 316 317 316 316 317 317 319 320 319 321 320 322 325 325 323 326 348 352 353 356 354 353 351 354 347 348 347 347 346 342 345 340
316 316 316 317 317 318 318 317 318 316 317 317 317 318 318 317 316 316 318 318 320 320 322 321 323 328 324 325 342 349 352 354 352 353 350 352 348 348 347 347 345 347 343 336
317 316 316 317 318 317 318 317 317 316 318 320 318 320 318 318 318 317 318 319 319 321 320 322 322 327 327 325 337 350 356 354 353 353 350 349 349 349 348 348 345 346 349 348
317 316 317 317 318 318 317 318 317 317 319 320 319 318 317 316 317 317 318 319 319 322 320 322 323 325 326 336 348 346 355 353 353 351 350 349 349 349 349 349 349 348 351 346
317 316 317 317 316 317 317 318 318 317 318 322 320 318 318 318 317 317 318 319 319 321 322 323 325 325 327 352 347 352 356 354 353 351 349 350 349 350 349 350 348 349 346 343
319 318 318 318 317 316 318 320 321 321 323 323 318 319 318 317 316 317 319 321 319 320 321 322 324 328 327 355 351 353 355 354 352 344 337 339 345 347 347 342 345 346 342 338
322 322 318 317 318 319 318 319 321 320 319 321 320 322 318 318 317 316 317 319 320 321 321 322 324 327 344 354 347 349 354 353 349 348 346 340 339 347 339 347 346 342 339 337
318 318 317 316 316 317 319 320 319 321 321 322 319 317 318 318 317 317 318 319 320 320 321 321 324 327 351 354 350 350 354 352 349 351 349 351 345 343 349 347 345 339 335 332
317 318 314 315 315 315 315 317 323 322 321 319 317 317 318 318 317 317 318 319 321 321 322 321 324 327 353 348 351 353 354 351 350 349 348 343 348 348 346 343 339 334 329 328
315 315 314 314 314 316 317 321 319 321 321 321 321 319 319 319 319 321 318 320 323 323 321 322 325 333 352 351 352 353 352 351 352 349 345 347 346 344 341 338 332 328 327 328
314 314 318 314 313 314 315 318 321 325 323 320 321 323 318 320 321 321 321 321 322 322 322 326 329 352 350 350 352 352 350 351 350 347 345 344 342 340 335 329 327 328 327 328
312 315 316 316 317 316 317 316 317 319 321 322 323 323 319 319 321 322 322 321 322 324 325 326 347 351 346 347 350 350 350 349 348 346 343 340 338 335 328 328 328 327 330 332
312 310 314 316 315 316 317 316 319 319 323 321 321 320 321 319 321 321 321 322 322 322 328 345 342 343 342 338 347 347 347 347 345 344 341 340 332 328 327 327 328 330 330 327
311 315 314 315 315 315 316 316 316 318 318 321 320 322 320 320 320 319 320 321 324 325 343 345 336 332 325 340 340 341 343 341 338 336 337 331 327 326 327 329 328 328 326 319
310 314 314 316 315 317 317 317 317 317 317 318 319 318 319 319 318 318 319 323 326 332 341 342 342 336 337 339 337 337 337 340 340 339 332 326 324 326 329 327 325 323 317 315
307 311 316 316 318 320 320 319 319 318 317 318 320 319 320 320 321 320 322 322 327 337 337 338 336 338 339 335 335 336 334 335 335 329 323 324 325 327 325 323 320 316 314 313
308 309 313 316 319 326 318 317 318 320 319 319 320 321 319 320 319 320 322 323 325 334 333 334 334 333 334 333 331 331 330 330 329 324 324 322 323 324 322 319 315 314 314 314
312 310 315 320 321 321 318 314 315 318 319 319 320 319 319 319 320 320 322 330 331 331 329 330 333 334 333 331 331 330 327 325 323 321 320 320 323 320 316 314 314 314 313 312
312 313 313 318 326 322 313 310 312 317 319 312 312 317 320 318 324 317 319 324 324 326 327 328 330 330 330 328 327 326 323 321 320 319 319 318 317 316 314 314 314 313 312 311
312 312 318 318 325 318 309 308 313 321 317 307 311 318 319 319 316 315 318 321 323 325 326 328 329 328 328 327 325 323 321 319 318 317 317 316 315 314 313 313 312 311 311 310
312 312 314 313 317 319 307 308 309 309 307 309 315 315 314 314 314 315 317 319 321 324 325 327 327 326 324 322 320 319 317 317 316 316 316 314 313 313 313 312 312 311 310 309
312 309 309 309 311 308 304 304 306 308 315 314 312 312 313 313 313 314 316 318 320 321 322 322 322 321 320 318 317 316 315 316 315 313 313 312 312 312 312 312 311 310 310 309
310 304 307 308 308 306 305 304 306 311 312 310 310 310 311 311 311 313 315 316 318 319 318 318 318 317 316 316 315 314 313 313 312 312 312 311 311 311 310 310 309 309 309 308
305 303 307 308 307 304 305 303 306 308 310 309 308 309 309 310 310 311 313 315 316 316 316 316 315 314 314 313 313 312 312 311 311 310 310 310 310 309 309 308 308 307 305 305
301 303 307 308 301 302 303 303 306 308 309 308 307 307 308 309 309 310 312 313 314 314 314 313 313 312 312 311 311 310 309 310 310 309 309 308 308 307 307 307 305 302 299 297
Wind_Speed
19 15 15 21 18 19 23 20 23 19 21 21 19 21 25 22 28 29 34 39 39 41 36 32 35 31 25 23 23 30 33 34 33 36 32 26 26 22 20 20 18 13 14 14
14 16 21 18 24 24 22 20 24 23 22 20 19 25 24 22 24 26 28 33 39 36 42 37 35 39 40 30 29 33 30 34 33 39 34 26 25 25 23 23 21 15 13 12
19 20 17 20 17 18 22 19 22 24 23 23 22 24 23 22 27 34 32 39 35 41 34 37 43 34 37 39 29 35 34 34 31 39 33 28 24 25 26 24 20 20 16 9
18 17 18 15 22 20 23 22 23 22 21 18 20 18 22 22 24 24 33 35 37 33 38 37 41 32 39 40 38 36 35 31 35 38 28 29 29 29 27 21 17 13 12 15
22 21 22 24 23 16 18 16 18 20 19 20 28 13 18 19 24 25 25 33 43 31 36 30 41 37 36 41 42 39 37 33 39 36 28 27 28 28 24 22 22 21 17 12
24 27 22 22 22 21 20 15 21 20 18 17 27 19 21 20 25 24 24 38 39 33 28 28 28 39 40 43 42 39 42 39 46 41 39 27 25 29 32 25 23 18 16 10
19 21 20 20 21 18 13 17 10 7 9 16 18 11 18 23 25 29 24 35 35 29 31 33 30 34 39 41 40 38 42 43 49 39 32 38 25 29 28 21 22 19 16 13
11 7 6 1 16 10 15 12 10 11 11 12 5 9 9 26 23 31 32 35 35 34 34 38 35 33 43 41 40 42 46 47 45 39 42 39 41 38 27 24 23 20 20 17
7 7 12 16 7 2 7 10 19 19 17 15 17 26 17 19 18 23 24 31 42 45 46 48 40 35 46 45 44 47 48 48 47 44 48 41 35 30 30 31 25 23 20 18
6 12 13 16 9 17 20 19 5 8 7 15 16 11 8 13 9 17 22 23 41 47 48 49 43 37 54 47 47 46 49 49 49 48 46 37 36 34 34 31 23 23 21 18
4 5 9 14 9 19 12 11 12 9 8 7 13 6 9 16 14 16 16 26 24 42 49 45 41 37 51 47 46 53 50 51 48 44 43 44 38 33 26 27 25 23 19 18
7 5 11 22 27 24 21 17 16 5 6 12 10 5 10 16 17 12 23 30 23 43 44 40 37 42 50 47 52 57 54 50 48 46 46 40 38 30 30 28 25 22 22 18
2 4 7 10 2 14 9 17 18 14 15 19 12 8 6 12 15 14 13 20 32 12 34 40 38 47 49 51 56 56 53 53 48 49 45 41 34 34 31 28 27 25 21 17
13 3 11 12 20 16 11 14 13 11 9 14 11 11 15 17 16 19 25 28 19 19 19 40 45 43 45 28 43 48 46 57 56 53 47 37 35 33 32 32 28 24 20 16
3 5 12 21 25 23 23 20 20 21 18 14 16 5 7 11 14 15 23 34 27 24 37 40 45 41 39 19 45 52 40 50 55 54 49 43 37 35 34 30 27 23 19 16
3 5 12 23 22 18 22 21 20 22 21 17 17 11 13 8 14 19 22 30 36 14 37 45 45 40 36 47 43 53 61 47 41 45 42 42 39 37 32 29 26 22 20 17
2 3 5 7 14 9 2 9 18 17 18 15 15 12 10 5 7 15 14 21 25 32 37 43 44 49 51 48 48 48 48 50 47 45 42 39 37 35 30 27 24 21 18 15
4 2 3 8 14 1 3 20 18 17 8 12 4 5 4 3 6 15 18 22 32 42 38 46 47 51 53 48 48 52 47 46 43 41 41 39 36 32 28 25 23 22 19 16
6 1 4 4 5 4 9 18 12 11 9 15 14 2 3 3 4 6 24 16 17 43 38 47 48 49 48 46 47 44 43 43 43 41 39 36 31 29 27 25 23 20 20 18
12 10 2 4 5 6 6 24 25 16 3 18 19 18 7 4 4 3 10 31 31 39 47 51 50 49 50 45 46 47 44 42 40 39 37 34 31 29 27 25 23 20 19 19
7 5 4 8 3 4 14 23 23 3 6 25 32 10 9 4 9 9 11 29 36 46 49 53 55 52 46 44 46 46 43 41 40 40 37 34 30 28 27 27 25 20 19 18
5 7 4 5 5 4 28 15 6 10 37 31 12 18 23 26 21 14 18 38 42 51 50 55 58 48 43 44 48 46 44 42 41 38 35 33 31 30 27 26 23 21 20 19
1 2 4 4 4 12 20 16 25 31 6 14 15 18 27 31 24 18 25 38 44 50 52 51 53 46 42 42 44 46 42 41 40 40 38 34 32 30 28 27 23 20 17 17
1 3 3 5 4 13 10 26 28 18 16 18 19 24 30 31 26 25 29 38 46 44 47 49 50 47 44 42 41 42 42 42 43 42 40 37 36 32 27 24 23 23 21 17
2 6 5 4 6 13 9 25 26 12 13 18 24 27 30 33 28 30 32 38 43 44 43 46 46 46 44 43 41 39 42 42 43 39 37 33 30 26 24 24 23 17 14 9
3 3 2 2 10 8 8 20 14 10 14 17 24 28 32 35 30 32 36 36 39 41 41 44 45 45 43 42 40 40 40 37 35 35 32 28 26 23 24 23 22 18 17 15
Wind_Direction
258 237 240 259 263 293 291 284 280 270 254 270 283 291 286 280 236 233 229 242 229 229 236 233 229 231 212 206 194 191 195 197 194 187 178 181 182 172 175 184 199 205 191 196
263 254 261 251 287 284 280 285 281 279 278 276 255 248 263 269 270 260 236 234 241 219 223 231 236 217 205 203 205 206 197 194 199 186 175 180 175 175 171 190 199 202 192 203
277 277 292 277 254 268 270 264 272 285 290 289 279 272 261 268 260 264 254 243 238 233 213 216 229 204 197 198 197 203 198 194 196 186 176 180 174 170 178 194 196 182 192 188
283 287 274 288 288 262 246 250 265 275 283 273 281 274 275 273 245 242 254 231 241 225 226 208 221 215 193 197 200 196 194 190 191 182 180 177 173 170 186 194 176 175 174 182
283 284 282 274 266 285 285 293 283 282 269 279 263 257 265 247 243 258 235 254 226 229 213 221 204 212 204 185 190 191 197 195 188 179 177 175 173 174 179 169 171 179 179 190
275 277 273 264 262 252 268 267 262 267 265 259 256 258 258 250 258 242 223 240 221 221 221 231 210 204 186 178 188 189 192 190 179 173 166 163 183 181 179 175 178 172 180 162
288 288 267 248 260 259 300 248 266 256 233 252 258 275 270 269 242 257 219 229 220 217 217 229 227 193 176 170 181 183 191 190 178 183 180 175 182 197 184 179 177 166 157 143
292 309 360 50 246 262 233 264 244 264 264 287 209 225 237 241 245 243 245 226 208 208 221 228 225 201 177 175 184 186 188 182 181 173 173 174 176 189 174 169 181 166 161 158
317 275 337 309 282 128 289 264 261 276 272 267 271 276 231 292 234 234 252 241 211 208 207 222 222 202 170 181 186 192 183 182 174 170 177 180 179 162 160 179 174 159 158 145
338 286 282 291 310 256 266 269 260 217 272 268 266 313 305 299 268 250 239 255 216 198 196 212 211 196 169 183 186 183 181 176 173 176 177 159 165 166 170 173 158 157 141 136
292 223 282 311 261 266 277 271 236 259 249 272 290 284 308 330 316 327 275 283 201 180 196 204 198 184 170 177 178 178 178 172 169 168 156 166 159 163 168 170 155 141 134 137
326 288 286 278 275 266 256 247 253 233 263 257 275 251 340 332 326 301 308 249 276 184 196 182 183 162 165 171 171 172 173 165 162 153 165 157 157 160 173 159 142 136 134 133
247 247 297 299 216 29 283 263 244 256 267 268 272 283 321 322 316 309 314 248 260 213 185 171 158 161 173 170 173 172 168 155 153 155 155 157 158 165 159 143 136 134 132 127
217 240 239 262 277 293 284 296 290 281 264 272 270 312 320 325 338 326 312 323 266 238 190 131 133 152 155 206 173 169 152 145 151 152 156 153 155 150 145 135 132 128 123 119
162 264 249 259 268 271 269 261 261 262 262 270 284 213 257 294 312 303 301 306 308 265 135 124 135 154 139 118 124 122 130 142 144 140 145 142 146 138 130 127 127 123 119 114
186 262 290 291 280 282 263 251 248 251 255 264 265 262 229 290 309 296 291 321 319 254 129 124 131 137 138 140 134 134 144 151 152 147 141 136 137 131 125 127 123 120 118 116
189 282 301 281 322 330 327 284 263 255 252 251 251 270 151 239 327 292 326 317 301 122 122 124 127 135 138 130 134 136 133 143 141 140 133 131 127 123 125 124 123 121 119 119
163 223 251 283 310 300 249 21 8 329 268 271 253 157 146 10 345 296 315 268 257 119 118 122 132 132 132 129 127 128 131 133 132 126 121 118 122 123 124 124 118 115 112 106
210 203 273 283 292 288 35 2 340 327 312 9 349 230 107 90 354 358 351 124 137 127 125 126 138 138 138 130 126 124 118 116 116 116 118 121 125 123 120 116 115 114 114 111
320 213 218 304 290 12 3 338 324 298 261 347 339 303 128 109 151 333 15 121 119 120 126 124 129 132 128 122 124 118 116 115 115 116 116 118 124 122 117 115 112 110 108 106
330 349 267 310 302 106 357 337 332 5 334 310 302 249 114 121 103 109 118 116 125 122 120 122 124 122 122 123 121 117 118 117 119 120 122 122 122 120 117 116 117 120 112 103
341 325 337 335 342 355 3 345 14 299 296 302 67 105 111 101 110 118 126 117 118 121 119 121 120 121 121 121 119 118 116 120 124 127 124 118 115 117 118 117 111 103 95 86
329 331 311 323 330 343 330 308 311 317 2 70 82 91 105 100 111 114 113 114 114 115 115 115 116 117 117 117 119 117 121 128 124 120 117 115 113 107 103 102 97 93 90 93
271 63 258 316 86 338 338 344 347 12 45 86 98 97 108 110 111 108 107 110 114 115 115 117 115 113 112 116 118 120 125 125 123 117 115 120 126 130 127 124 125 121 116 121
15 312 309 262 313 332 345 346 348 27 67 92 104 109 112 117 109 111 107 110 112 112 113 115 115 115 116 120 120 122 124 125 123 133 129 132 133 133 135 134 131 127 108 110
315 298 305 309 319 300 318 344 6 57 68 98 110 109 114 120 110 110 110 110 112 114 116 115 116 118 120 120 120 125 130 137 132 127 131 129 129 128 128 127 120 102 90 85